User: anonymous   Login
Location: St. Louis
(38.6270°N, 90.1994°W)
Time: 22:47:59
(UTC-06:00)
Language:

CUTE 1.7 + AOD 2 - Orbit

View from above orbital plane
View from above orbital plane
View from above satellite
View from above satellite

Ground track
Ground track

The orbit data is extracted from the following two-line orbital elements,

1 32785U 08021C   22023.97574847  .00000829  00000-0  93633-4 0  9993
2 32785  97.6393 359.6297 0012833 359.8590   0.2622 14.89009079744982
Epoch (UTC): 23 January 2022 23:25:04
Eccentricity: 0.0012833
inclination: 97.6393°
perigee height: 592 km
apogee height: 610 km
right ascension of ascending node: 359.6297°
argument of perigee: 359.8590°
revolutions per day: 14.89009079
mean anomaly at epoch: 0.2622°
orbit number at epoch: 74498

The dashed part of the orbit path shows where the satellite is in the earth's shadow,  

DLR